This is the latest recevied weather packets stored in our database for station/object IK1QAD-3. If no packets are shown the sender has not sent any weather packets the latest 10 day(s).
| Time | Temp. | Humidity | Pressure | Rain* | Wind** | Luminosity | Snow |
|---|---|---|---|---|---|---|---|
| 1777819105 | 18.33° C | 70% | 1018.7 hPa | 0 mm | - | - | - |
| 1777818822 | 17.78° C | 71% | 1018.9 hPa | 0 mm | - | - | - |
| 1777818517 | 17.78° C | 70% | 1019 hPa | 0 mm | - | - | - |
| 1777818211 | 17.78° C | 68% | 1019 hPa | 0 mm | - | - | - |
| 1777817909 | 17.78° C | 70% | 1019.1 hPa | 0 mm | - | - | - |
| 1777817605 | 17.78° C | 68% | 1019.1 hPa | 0 mm | - | - | - |
| 1777817307 | 17.78° C | 67% | 1019.1 hPa | 0 mm | - | - | - |
| 1777817005 | 18.33° C | 68% | 1019.1 hPa | 0 mm | - | - | - |
| 1777816718 | 18.33° C | 67% | 1019.1 hPa | 0 mm | - | - | - |
| 1777816415 | 18.33° C | 62% | 1019.2 hPa | 0 mm | - | - | - |
| 1777816108 | 18.33° C | 65% | 1019.2 hPa | 0 mm | - | - | - |
| 1777815805 | 18.33° C | 65% | 1019.4 hPa | 0 mm | - | - | - |
| 1777815523 | 17.78° C | 63% | 1019.5 hPa | 0 mm | - | - | - |
| 1777815217 | 18.33° C | 67% | 1019.4 hPa | 0 mm | - | - | - |
| 1777814915 | 17.78° C | 66% | 1019.4 hPa | 0 mm | - | - | - |
| 1777814608 | 17.78° C | 67% | 1019.5 hPa | 0 mm | - | - | - |
| 1777814305 | 17.78° C | 67% | 1019.4 hPa | 0 mm | - | - | - |
| 1777814023 | 17.78° C | 66% | 1019.4 hPa | 0 mm | - | - | - |
| 1777813714 | 18.33° C | 65% | 1019.6 hPa | 0 mm | - | - | - |
| 1777813413 | 18.33° C | 66% | 1019.6 hPa | 0 mm | - | - | - |
| 1777813105 | 18.33° C | 67% | 1019.7 hPa | 0 mm | - | - | - |
| 1777812804 | 18.33° C | 68% | 1019.7 hPa | 0 mm | - | - | - |
| 1777812523 | 18.33° C | 68% | 1019.7 hPa | 0 mm | - | - | - |
| 1777812217 | 17.78° C | 68% | 1019.8 hPa | 0 mm | - | - | - |
| 1777811913 | 18.33° C | 69% | 1019.9 hPa | 0 mm | - | - | - |
* Rain latest hour (hover to see other rain measurements)
** Current wind speed in m/s (hover to see current wind gust speed)